Find Starlink 35106

NORAD ID: 65739 Int'l Des: 2025-216 Owner: SPXS Country: US Constellation: starlink operational
LEOCIRCULAR

現在のビュー

3D地球を読み込み中...

About Starlink 35106

Starlink 35106 (NORAD 65739) is a starlink constellation satellite (v2 mini) launched Sep 25, 2025 by SPXS of US. It operates in LEO, CIRCULAR orbit with a mass of 575.00 kg.

次回通過

Passes for default location (London). Set your location on the main map for personalized predictions.

高度履歴

Loading altitude history...

軌道要素

1 65739U 25216F 26238.46034105 .00023581 00000-0 70685-3 0 9998
2 65739 53.1619 263.0923 0001483 102.9343 257.1825 15.34400088 52527
Epoch: Aug 26, 2026 • Age: 6 hours

現在のステータス

高度 464.9 km
遠地点 / 近地点 N/A
速度 7.64 km/s
衛星直下点 36.01°N, 57.06°E
打ち上げ日 Sep 25, 2025
運用期間 0.9 years
タイプ internet

技術仕様

分類 Payload
質量 575.00 kg
乾燥質量 530.00 kg
総質量 575.00 kg
長さ 0.30 m
直径 4.10 m
スパン 29.00 m
形状 Box + pan
製造者 SPXS
バスタイプ Starlink V2MO
フェーズステータス In Orbit
所有者/国 SPXS/US

Most Searched